Location: Azul
(36.7830°S, 59.8500°W)
Time: 02:05:03
(UTC-03:00)

HuskySat-1 - Visible Passes

Search period start: 23 October 2021 00:00
Search period end: 02 November 2021 00:00
Orbit: 446 x 458 km, 51.6° (Epoch: 22 October)

Date Brightness Start Highest point End Pass type
(mag) Time Alt. Az. Time Alt. Az. Time Alt. Az.
23 Oct ? 03:27:23 10° S 03:29:14 13° SSE 03:31:06 10° SE visible
23 Oct ? 05:03:48 10° SW 05:07:24 60° SE 05:10:58 10° ENE visible
24 Oct ? 02:51:59 12° SSE 02:52:01 12° SSE 02:53:24 10° SE visible
24 Oct ? 04:26:49 10° SW 04:30:20 44° SE 04:33:49 10° ENE visible
24 Oct ? 21:15:38 10° NW 21:16:48 19° NNW 21:16:48 19° NNW visible
25 Oct ? 03:51:09 19° SSW 03:53:14 34° SSE 03:56:34 10° E visible
25 Oct ? 05:27:36 10° WSW 05:30:39 26° NW 05:33:41 10° N visible
25 Oct ? 20:38:44 10° NNW 20:42:12 44° NE 20:44:16 21° ESE visible
25 Oct ? 22:16:49 10° W 22:18:05 17° WSW 22:18:05 17° WSW visible
26 Oct ? 03:17:23 22° ESE 03:17:23 22° ESE 03:19:14 10° E visible
26 Oct ? 04:51:09 16° WSW 04:53:40 36° NW 04:56:59 10° NNE visible
26 Oct ? 20:01:56 10° NNW 20:05:11 31° NE 20:08:28 10° ESE visible
26 Oct ? 21:39:26 10° W 21:42:42 30° SSW 21:44:52 17° SSE visible
27 Oct ? 04:18:14 28° NNE 04:18:14 28° NNE 04:20:08 10° NNE visible
27 Oct ? 21:02:07 10° WNW 21:05:33 38° SW 21:09:01 10° SE visible
27 Oct ? 22:42:52 10° SSW 22:43:56 11° SSW 22:44:32 11° S visible
28 Oct ? 20:24:51 10° WNW 20:28:25 50° SW 20:32:00 10° SE visible
28 Oct ? 22:05:00 10° SW 22:06:38 12° SSW 22:08:17 10° S visible
29 Oct ? 21:27:16 10° WSW 21:29:22 14° SSW 21:31:28 10° SSE visible
30 Oct ? 20:49:38 10° WSW 20:52:06 17° SSW 20:54:35 10° SSE visible
31 Oct ? 20:12:03 10° WSW 20:14:50 20° SSW 20:17:38 10° SSE visible
